Showing default

USA 159, 26880

Orbit data source: Space-Track

USA 159, 26880 is a payload satellite owned by USAF SMC (US) in GEO that was launched on Mon, 06 Aug 2001 UTC via a TITAN 402B/IUS launch vehicle from the Air Force Eastern Test Range (AFETR). Payload-class satellites include a variety of spacecraft equipped with specific instruments for various scientific and technological missions. These include communications satellites like Starlink; space stations such as the ISS; scientific satellites like the Hubble; Earth observation satellites from companies like Planet Labs, Umbra, and HawkEye 360; GPS; miniature CubeSats for education and research; and military/defense satellites.

Loading next visibility...
Identifier
26880, 2001-033A
Orbit
GEO
Country
Flag of USUS
Related business
Manufacturer
TRW
Mission
Operational Defense Classified
Bus & Motor
DSP B18, MRE-4
Mass
~2,360 kg wet, ~2,200 kg dry
Launch date (UTC)
2001-08-06 (25 years ago)
Launch vehicle
TITAN 402B/IUS
Launch site
Air Force Eastern Test Range (AFETR)
Object type
Payload
Rocket body
Debris
Shape & HBR
Cyl + 1 Pan, 5.8 m
Radar Cross Section
31.528 m², Large (>1 m²)

Expand to show TLE details & history
Last TLE update: 1 day ago

TLE from 1 day ago
0 USA 159
1 26880U 01033A   26034.83447170 -.00000305  00000-0  00000-0 0  9999
2 26880  12.6582  17.3619 0000702 197.7315 169.7784  1.00278522 31631
Epoch: 2026-02-03T20:01Z
TLE epoch observation values (Epoch: 2026-02-03T20:01:38.354Z)
Latitude
1.63326°
Longitude
-49.7079°
Altitude
35,786.95 km
Speed
3.075 km/s
True Right ascension
01h 38m 50s
True Declination
1° 37' 54"
Sunlit
Object was in daylight at epoch
Visualization orbit readout
Latitude
Unknown
Longitude
Unknown
Altitude
Unknown
Speed
Unknown
Apparent Right ascension
Unknown
Apparent Declination
Unknown
Sunlit
N/A
Visualization observer readout
Local Sidereal Time
01:40:26
Azimuth
Unknown
Elevation
Unknown
Doppler factor
Unknown
Orbital elements
Apogee altitude
35,788.662 km
Perigee altitude
35,782.742 km
Semi-major axis
42,163.839 km
Eccentricity
0.00007
Inclination
12.6582°
RAAN
17.3619°
Arg. of periapsis
197.7315°
True anomaly
169.77983°
Mean anomaly
169.7784°
Eccentric anomaly
169.77911°
Mean motion
0.25069 °/min
Orbital period
1,436.05 mins
BSTAR
0
Loading maneuver chart data...
Computing Atmospheric mass density...
Loading historical data...
Loading historical data...
Loading historical data...
Loading historical data...
Loading historical data...
Loading historical data...
Loading historical data...
Other satellites on launch #33 in the year 2001 (2001-08-06 UTC)

Documentation

Showing up to 5 results
|